M 341.22828              (2000.0)            P               Q                  
n   0.00167560     Peri.   49.92322     +0.53592038     -0.84409140             
a  70.2031361      Node     7.72839     +0.73018141     +0.45312108             
e   0.5234024      Incl.    7.38843     +0.42382126     +0.28668972             
P 588              H    8.14          G   0.15           U   5                  
Residuals in seconds of arc
K198T  W84  0.0   0.1+    K20AG  W84  0.1+  0.1-    K21A7  W84  0.0   0.0  
K198T  W84  0.0   0.1-    K20AG  W84  0.0   0.0     K21A7  W84  0.0   0.0  
K199R  W84  0.0   0.0     K2195  W84  0.0   0.0     
K199R  W84  0.0   0.0     K2195  W84  0.0   0.1+    
2021 RU236                                                                      
Epoch 2023 Sept. 13.0 TT = JDT 2460200.5                Alexandersen            
M 192.40696              (2000.0)            P               Q                  
n   0.00331158     Peri.    6.14232     -0.96897216     -0.24714630             
a  44.5772132      Node   159.54799     +0.22635613     -0.89283886             
e   0.0522503      Incl.    0.55971     +0.09927663     -0.37650693             
P 298              H    8.06          G   0.15           U   8                  
Residuals in seconds of arc
K198S  W84  0.1+  0.1+    K20AL  W84  0.0   0.0     K21A4  W84  0.0   0.0  
K198S  W84  0.1-  0.0     K2196  W84  0.1+  0.0     K21A4  W84  0.0   0.1- 
K20AL  W84  0.1+  0.1-    K2196  W84  0.2-  0.1+    
2021 RV236                                                                      
Epoch 2023 Sept. 13.0 TT = JDT 2460200.5                Alexandersen            
M  15.36908              (2000.0)            P               Q                  
n   0.00263840     Peri.   21.56726     +0.87666106     +0.48108188             
a  51.8691804      Node   309.67564     -0.44236419     +0.80188250             
e   0.2612205      Incl.    0.37670     -0.18915420     +0.35432284             
P 374              H    9.26          G   0.15           U   6                  
Residuals in seconds of arc
K199T  W84  0.1-  0.0     K2196  W84  0.1+  0.0     K21A4  W84  0.1+  0.1- 
K199T  W84  0.1+  0.0     K2196  W84  0.1-  0.0     K21A4  W84  0.0   0.0  
K20AL  W84  0.1+  0.1+    K21A1  W84  0.3-  0.2+    
K20AL  W84  0.1-  0.2-    K21A1  W84  0.2+  0.1-    
2021 RW236                                                                      
Epoch 2023 Sept. 13.0 TT = JDT 2460200.5                Alexandersen            
M 274.58006              (2000.0)            P               Q                  
n   0.00313622     Peri.  282.73547     -0.09571136     -0.99536317             
a  46.2237042      Node   172.73645     +0.94010946     -0.09354816             
e   0.1246349      Incl.    4.33868     +0.32715981     -0.02238064             
P 314              H    7.50          G   0.15           U   7                  
Residuals in seconds of arc
K199T  W84  0.0   0.1-    K20AH  W84  0.0   0.0     K21A3  W84  0.0   0.0  
K199T  W84  0.0   0.1+    K2194  W84  0.2+  0.1+    K21A3  W84  0.0   0.0  
K20AH  W84  0.0   0.0     K2194  W84  0.2-  0.1-    
2021 RX236                                                                      
Epoch 2023 Sept. 13.0 TT = JDT 2460200.5                Alexandersen            
M  80.03642              (2000.0)            P               Q                  
n   0.00331843     Peri.  259.37077     -0.02140878     +0.99976958             
a  44.5157919      Node     9.40293     -0.91348460     -0.01892463             
e   0.0711137      Incl.    0.54907     -0.40630967     -0.01013141             
P 297              H    8.69          G   0.15           U   6                  
Residuals in seconds of arc
K198S  W84  0.1+  0.0     K20AL  W84  0.0   0.0     K21A4  W84  0.1+  0.2- 
K198S  W84  0.1-  0.0     K2196  W84  0.0   0.2+    K21A4  W84  0.0   0.1+ 
K20AL  W84  0.0   0.0     K2196  W84  0.1-  0.1-    
M. P. C. Staff               (C) Copyright 2023 MPC           M.P.E.C. 2023-W136
    
    
More information about the Iaude
mailing list